This is the latest recevied weather packets stored in our database for station/object ED5YAL-15. If no packets are shown the sender has not sent any weather packets the latest 10 day(s).
| Time | Temp. | Humidity | Pressure | Rain* | Wind** | Luminosity | Snow |
|---|---|---|---|---|---|---|---|
| 1777554099 | 22.22° C | 46% | 1019.9 hPa | - | - | - | - |
| 1777553201 | 22.78° C | 46% | 1019.9 hPa | - | - | - | - |
| 1777552303 | 23.33° C | 46% | 1019.9 hPa | - | - | - | - |
| 1777551394 | 23.33° C | 46% | 1020 hPa | - | - | - | - |
| 1777550493 | 23.33° C | 45% | 1020.1 hPa | - | - | - | - |
| 1777549592 | 24.44° C | 45% | 1020.2 hPa | - | - | - | - |
| 1777548692 | 22.78° C | 47% | 1020.2 hPa | - | - | - | - |
| 1777547790 | 22.22° C | 46% | 1020.2 hPa | - | - | - | - |
| 1777546890 | 25° C | 46% | 1020.1 hPa | - | - | - | - |
| 1777545989 | 21.67° C | 46% | 1020.2 hPa | - | - | - | - |
| 1777545088 | 21.11° C | 46% | 1020.2 hPa | - | - | - | - |
| 1777544187 | 23.33° C | 46% | 1020.1 hPa | - | - | - | - |
| 1777543286 | 20.56° C | 47% | 1020.2 hPa | - | - | - | - |
| 1777542386 | 20° C | 46% | 1020.2 hPa | - | - | - | - |
| 1777541485 | 20.56° C | 46% | 1020.3 hPa | - | - | - | - |
| 1777540584 | 21.67° C | 46% | 1020.2 hPa | - | - | - | - |
| 1777539683 | 21.11° C | 46% | 1020 hPa | - | - | - | - |
| 1777538782 | 22.78° C | 46% | 1019.9 hPa | - | - | - | - |
| 1777537882 | 23.89° C | 45% | 1019.8 hPa | - | - | - | - |
| 1777536981 | 26.67° C | 45% | 1019.6 hPa | - | - | - | - |
| 1777536099 | 26.11° C | 44% | 1019.6 hPa | - | - | - | - |
| 1777535198 | 25° C | 45% | 1019.7 hPa | - | - | - | - |
| 1777534297 | 24.44° C | 45% | 1019.4 hPa | - | - | - | - |
| 1777533396 | 25.56° C | 45% | 1019.3 hPa | - | - | - | - |
| 1777532496 | 23.33° C | 46% | 1019.2 hPa | - | - | - | - |
* Rain since midnight (hover to see other rain measurements)
** Current wind speed in m/s (hover to see current wind gust speed)